Thibaut Dromigny

Thibaut Dromigny

Statistiques 2026

  • Courses courues : 170
  • Nb de victoires : 11
  • Nb de places : 45
  • Écart gagnant : 3
  • Réussite à la gagne : 6%
  • Réussite à la place : 26%
Musique : Da 5a Aa 1a 2a 4a 7m 6a 6a 5a 0a 0a 7m 1m 2m 2a 2m 2a
DateRangCatégorieAlloc.Dist.HippodromeChevalRed. KmSpé.
24/04/25 5 Trot 24 000€ 2 500m Reims Jet Spe 1'14"0 Attelé
24/04/25 4 Trot 18 000€ 2 500m Reims La Magie du Persil 1'15"7 Attelé
24/04/25 3 Trot 25 000€ 2 550m Reims Isidore Bonheur 1'14"7 Monté
22/04/25 5 Trot 62 000€ 2 700m Vincennes Manama d'Orly 1'16"9 Monté
21/04/25 2 Trot 16 500€ 2 600m Nancy Just Love d'Alsace 1'17"0 Attelé
21/04/25 4 Trot 16 500€ 2 625m Nancy Kristal des Moyeux 1'18"2 Attelé
21/04/25 D Trot 16 500€ 2 600m Nancy Karisme Fou Attelé
21/04/25 2 Trot 19 500€ 2 625m Nancy Hugo The Boss 1'16"1 Attelé
21/04/25 A Trot 16 500€ 2 600m Nancy Kiss Me Syga Attelé
21/04/25 6 Trot 14 000€ 2 600m Nancy Laziza Jasma 1'18"4 Attelé
21/04/25 D Trot 14 000€ 2 600m Nancy Mambo Meslois Attelé
20/04/25 D Trot 19 500€ 2 100m Lyon Parilly Jungle du Caux Monté
20/04/25 3 Trot 15 000€ 2 100m Lyon Parilly Mickey Michettude 1'19"4 Monté
17/04/25 4 Trot 40 000€ 2 875m Enghien Soisy Love Me de Cerisy 1'15"7 Monté
16/04/25 4 Trot 21 000€ 2 550m Reims Lolita de Mieloui 1'15"1 Monté
13/04/25 D Trot 16 500€ 2 800m Tours Keops de Godiniere Monté
13/04/25 6 Trot 14 000€ 2 825m Tours Leia Highland Attelé
13/04/25 D Trot 50 000€ 3 500m Tours Haudatis Attelé lire

A rapidement été disqualifiée.

14/04/25 D Trot 27 000€ 2 875m Lyon Parilly Katsumoto Attelé
14/04/25 6 Trot 21 000€ 2 600m Lyon Parilly Lucky de Calvi 1'15"8 Attelé
14/04/25 4 Trot 21 000€ 2 600m Lyon Parilly Kristal des Moyeux 1'14"9 Attelé
12/04/25 D Trot 120 000€ 2 175m Vincennes Manama d'Orly Monté
09/04/25 D Trot 21 000€ 2 550m Reims Lucia du Chatelet Attelé
07/04/25 2 Trot 20 000€ 2 400m Amiens Jet Spe 1'13"6 Attelé
06/04/25 5 Trot 12 000€ 2 500m Bihorel Les Rouens Lutin du Fosse Attelé
06/04/25 D Trot 19 500€ 3 600m Bihorel Les Rouens M.T. Oberon Attelé
06/04/25 D Trot 12 000€ 2 500m Bihorel Les Rouens Lagertha Melandre Monté
04/04/25 0 Trot 46 000€ 2 200m Vincennes Kiki du Roc Monté lire

Après avoir figuré, n'a pas été capable de changer de rythme pour finir.

03/04/25 3 Trot 27 000€ 2 850m Mauquenchy Ivajale Attelé
03/04/25 8 Trot 21 000€ 2 150m Mauquenchy Kif de la Brette 1'13"7 Attelé
02/04/25 5 Trot 20 000€ 2 350m Angers La Nuit Je Mens 1'16"4 Attelé
07/03/25 8 Trot 59 000€ 2 150m Enghien Soisy Ferlaine 1'13"7 Attelé lire

Longtemps à l'arrière-garde, n'a pas trop mal conclu.

14/03/25 5 Trot 46 000€ 2 875m Enghien Soisy Kiki du Roc 1'15"1 Monté lire

Après avoir fermé la marche, a conclu fort honorablement.

10/03/25 4 Trot 20 000€ 2 050m Lyon La Soie Looping Ben Max 1'14"3 Attelé
09/03/25 6 Trot 13 000€ 2 800m Strasbourg La Baronne 1'20"7 Attelé
09/03/25 D Trot 21 000€ 2 800m Strasbourg Isis Castelets Attelé
09/03/25 8 Trot 15 000€ 2 800m Strasbourg Kanza de Navary 1'19"4 Attelé
09/03/25 3 Trot 13 000€ 2 800m Strasbourg Le Vent du Houlet 1'17"9 Attelé
09/03/25 D Trot 14 000€ 2 200m Strasbourg Maldini Ellis Attelé
08/03/25 D Trot 21 000€ 2 700m Le Croise Laroche Kiss Symphony Attelé
08/03/25 D Trot 35 000€ 2 825m Le Croise Laroche Hello Paname Attelé lire

A rapidement été sanctionné.

08/03/25 2 Trot 30 000€ 2 700m Le Croise Laroche Idreamis 1'14"0 Attelé
07/03/25 5 Trot 40 000€ 2 250m Enghien Soisy Malong 1'19"5 Monté
02/03/25 1 Trot 24 000€ 2 675m Chatillon Illustre Sax 1'17"6 Attelé
02/03/25 D Trot 14 000€ 2 675m Chatillon Le Conquistador Attelé
02/03/25 4 Trot 14 000€ 2 675m Chatillon Lalmeria Filo 1'19"3 Attelé
02/03/25 5 Trot 14 000€ 2 675m Chatillon Love d'Urzy 1'18"7 Attelé
02/03/25 2 Trot 16 500€ 2 675m Chatillon Love Me de Cerisy 1'16"9 Monté
02/03/25 1 Trot 16 500€ 2 700m Chatillon Jaeger Man 1'17"2 Attelé
05/03/25 0 Trot 90 000€ 2 925m Amiens Hannah Attelé lire

N'a joué aucun rôle utile.